TimeCST,TemperatureF,Dew PointF,Humidity,Sea Level PressureIn,VisibilityMPH,Wind Direction,Wind SpeedMPH,Gust SpeedMPH,PrecipitationIn,Events,Conditions,WindDirDegrees,DateUTC
12:54 AM,19.9,16.0,85,30.44,10.0,SSW,8.1,-,N/A,,Clear,210,2013-01-10 06:54:00
1:54 AM,21.9,18.0,85,30.47,10.0,WSW,4.6,-,N/A,,Clear,240,2013-01-10 07:54:00
2:54 AM,23.0,18.0,81,30.47,10.0,Calm,Calm,-,N/A,,Clear,0,2013-01-10 08:54:00
3:54 AM,17.1,14.0,88,30.47,10.0,South,6.9,-,N/A,,Clear,180,2013-01-10 09:54:00
4:54 AM,19.9,17.1,89,30.45,10.0,South,3.5,-,N/A,,Clear,170,2013-01-10 10:54:00
5:54 AM,18.0,15.1,88,30.45,10.0,East,3.5,-,N/A,,Clear,100,2013-01-10 11:54:00
6:54 AM,18.0,15.1,88,30.44,10.0,Calm,Calm,-,N/A,,Clear,0,2013-01-10 12:54:00
7:54 AM,17.1,15.1,92,30.44,8.0,East,4.6,-,N/A,,Clear,100,2013-01-10 13:54:00
8:54 AM,19.0,17.1,92,30.43,10.0,ESE,4.6,-,N/A,,Clear,120,2013-01-10 14:54:00
9:54 AM,24.1,19.0,81,30.41,10.0,East,3.5,-,N/A,,Clear,100,2013-01-10 15:54:00
10:54 AM,28.9,19.0,67,30.38,10.0,ESE,4.6,-,N/A,,Clear,120,2013-01-10 16:54:00
11:54 AM,33.1,19.0,56,30.32,10.0,SSE,9.2,-,N/A,,Clear,150,2013-01-10 17:54:00
12:54 PM,34.0,21.0,59,30.28,10.0,East,5.8,-,N/A,,Clear,100,2013-01-10 18:54:00
1:54 PM,34.0,21.9,61,30.22,10.0,East,8.1,-,N/A,,Clear,100,2013-01-10 19:54:00
2:54 PM,34.0,21.0,59,30.22,10.0,ESE,9.2,-,N/A,,Clear,110,2013-01-10 20:54:00
3:54 PM,34.0,21.0,59,30.20,10.0,ESE,11.5,-,N/A,,Clear,110,2013-01-10 21:54:00
4:54 PM,34.0,21.9,61,30.16,10.0,ESE,11.5,-,N/A,,Mostly Cloudy,110,2013-01-10 22:54:00
5:54 PM,34.0,26.1,73,30.12,10.0,ESE,13.8,-,N/A,,Overcast,120,2013-01-10 23:54:00
6:54 PM,34.0,28.0,79,30.09,9.0,ESE,13.8,-,0.00,Rain,Light Rain,110,2013-01-11 00:54:00
7:42 PM,33.8,30.2,87,29.98,4.0,East,15.0,23.0,0.07,Rain,Rain,100,2013-01-11 01:42:00
7:54 PM,33.1,30.9,92,30.02,3.0,ESE,16.1,23.0,0.10,Rain,Rain,110,2013-01-11 01:54:00
8:02 PM,33.8,30.2,87,29.95,2.5,ESE,18.4,24.2,0.01,Rain,Rain,110,2013-01-11 02:02:00
8:06 PM,33.8,30.2,87,29.96,3.0,ESE,15.0,24.2,0.02,Rain,Rain,120,2013-01-11 02:06:00
8:18 PM,33.8,30.2,87,29.95,3.0,ESE,10.4,-,0.04,Rain,Rain,110,2013-01-11 02:18:00
8:54 PM,33.1,32.0,96,29.98,4.0,ESE,15.0,-,0.06,Rain,Light Rain,120,2013-01-11 02:54:00
9:50 PM,33.8,32.0,93,29.88,3.0,ESE,15.0,-,0.00,Rain,Light Rain,120,2013-01-11 03:50:00
9:54 PM,33.1,32.0,96,29.93,3.0,SE,16.1,-,0.00,Rain,Light Rain,130,2013-01-11 03:54:00
10:54 PM,33.1,32.0,96,29.89,5.0,SE,12.7,-,0.00,,Overcast,140,2013-01-11 04:54:00
11:54 PM,34.0,33.1,96,29.86,5.0,SSE,15.0,-,N/A,,Overcast,150,2013-01-11 05:54:00